Flag for United Kingdom Weather past 2 weeks in Taunton, England, United Kingdom

Now
39 °F

Rain. Cloudy.


Feels Like: 34 °F
Forecast: 41 / 50 °F
Wind: 8 mph from West

Location: Dunkeswell Aerodrome

Current Time: Mar 1, 2015 at 4:45:18 PM

Latest Report: Mar 1, 2015 at 4:00 PM


Visibility: 14 mi

Pressure: 29.54 "Hg

Humidity: 97%

Dew point: 38 °F

Location of TauntonLocation

Historic Weather in Taunton — Graph

°F

Taunton temperature yesterday

Maximum temperature yesterday: 50 °F (at 9:00 PM)
Minimum temperature yesterday: 42 °F (at 12:00 AM)
Average temperature yesterday: 46 °F

Past Weeks' High & Low Weather Summary

 TemperatureHumidityPressure
High51 °F (Feb 25, 1:00 PM)100% (Feb 15, 12:00 AM)30.78 "Hg (Feb 15, 12:00 AM)
Low29 °F (Feb 21, 11:00 PM)51% (Feb 17, 3:00 PM)29.29 "Hg (Feb 23, 3:00 PM)
Average41 °F88%29.92 "Hg
* Reported Feb 14 3:00 PM — Mar 1 3:00 PM, Taunton, Weather by CustomWeather, © 2015

Note: Actual official high and low records may vary slightly from our data, if they occured in-between our weather recording intervals... More about our weather records

Advertising

Taunton weather history for previous 24 hours

 ConditionsComfort  
Time TempWeatherWind HumidityBarometerVisibility
3:00 PM
Sun, Mar 1
49 °FCool.23 mph68%29.50 "Hg10 mi
2:00 PM49 °FCool.23 mph62%29.55 "Hg14 mi
1:00 PM49 °FCool.20 mph63%29.59 "Hg8 mi
12:00 PM47 °FCool.13 mph67%29.63 "Hg6 mi
11:00 AM45 °FCool.14 mph73%29.67 "Hg7 mi
10:00 AM44 °FQuite cool.14 mph80%29.67 "Hg7 mi
9:00 AM41 °FQuite cool.13 mph91%29.66 "Hg7 mi
8:00 AM40 °FQuite cool.13 mph91%29.65 "Hg8 mi
7:00 AM41 °FQuite cool.14 mph86%29.63 "Hg7 mi
6:00 AM41 °FRain showers. Overcast.13 mph86%29.62 "Hg9 mi
5:00 AM42 °FQuite cool.14 mph87%29.60 "Hg6 mi
4:00 AM43 °FRain showers. Overcast.14 mph86%29.59 "Hg6 mi
2:00 AM44 °FSmoke.14 mph82%29.57 "Hg6 mi
1:00 AM45 °FSmoke.15 mph86%29.57 "Hg5 mi
12:00 AM46 °FSmoke.17 mph84%29.54 "Hg4 mi
11:00 PM
Sat, Feb 28
48 °FSmoke.14 mph84%29.50 "Hg5 mi
10:00 PM49 °FCool.15 mph93%29.50 "Hg7 mi
9:00 PM50 °FDrizzle. Overcast.18 mph100%29.50 "Hg3 mi
8:00 PM49 °FRain. Overcast.13 mph100%29.50 "Hg5 mi
7:00 PM48 °FLight rain. Overcast.20 mph100%29.53 "Hg7 mi
6:00 PM47 °FLight mixture of precip. Overcast.18 mph100%29.56 "Hg1 mi
5:00 PM47 °FCool.17 mph90%29.60 "Hg5 mi
4:00 PM47 °FRain showers. Cloudy.14 mph88%29.65 "Hg5 mi
Weather by CustomWeather, © 2015

See weather overviewHow to use our weather pages